Location: Ridgway Nature & Science Center
(38.1460°N, 107.7553°W)
Time: 13:10:23
(UTC-07:00)

Hubble Space Telescope - Visible Passes

Search period start: 30 November 2022 00:00
Search period end: 10 December 2022 00:00
Orbit: 530 x 534 km, 28.5° (Epoch: 30 November)

Date Brightness Start Highest point End Pass type
(mag) Time Alt. Az. Time Alt. Az. Time Alt. Az.
05 Dec 3.6 06:40:36 10° SSW 06:42:29 13° SSE 06:44:22 10° SE visible
06 Dec 3.4 06:27:27 10° SSW 06:29:45 15° SSE 06:32:02 10° SE visible
07 Dec 3.3 06:14:26 10° SSW 06:16:59 16° SSE 06:19:33 10° SE visible
08 Dec 3.1 06:01:29 10° SSW 06:04:15 18° S 06:07:00 10° SE visible
09 Dec 3.0 05:48:36 10° SW 05:51:30 19° S 05:54:24 10° SE visible
